CW4558 Weather Reports


Display with metric or nautical units.
time (UTC)temp
F
wind
direction
speed
MPH
gust
MPH
rain 1hr
in
rain 24hr
in
rain mn
in
humidity
%
barometer
mb
20260903081559 76 221 1.0 4.0 0.00 0.00 0.00 74 1013.7
20260903081329 76 162 1.0 4.0 0.00 0.00 0.00 74 1013.7
20260903080816 76 165 1.0 3.0 0.00 0.00 0.00 74 1013.7
20260903080318 75 262 1.0 2.0 0.00 0.00 0.00 75 1013.7
20260903075552 75 236 1.0 2.0 0.00 0.00 0.00 75 1013.7
20260903075053 75 164 1.0 2.0 0.00 0.00 0.00 75 1013.9
20260903074551 75 324 0.0 2.0 0.00 0.00 0.00 76 1014.0
20260903074053 75 219 0.0 2.0 0.00 0.00 0.00 76 1014.1
20260903073824 75 0 1.0 3.0 0.00 0.00 0.00 76 1014.2
20260903073052 76 223 1.0 3.0 0.00 0.00 0.00 75 1014.3
20260903072809 76 213 1.0 3.0 0.00 0.00 0.00 75 1014.1
20260903072050 75 198 1.0 3.0 0.00 0.00 0.00 75 1014.0
20260903071550 75 186 1.0 2.0 0.00 0.00 0.00 75 1014.0
20260903071051 75 193 0.0 2.0 0.00 0.00 0.00 76 1014.0
20260903070810 75 157 0.0 2.0 0.00 0.00 0.00 76 1014.0
20260903070048 75 0 0.0 1.0 0.00 0.00 0.00 76 1014.0
20260903065550 76 0 0.0 1.0 0.00 0.00 0.00 76 1014.2
20260903065051 76 230 1.0 2.0 0.00 0.00 0.00 76 1014.4
20260903064810 76 0 1.0 2.0 0.00 0.00 0.00 75 1014.5
20260903064052 76 0 0.0 2.0 0.00 0.00 0.00 74 1014.6
20260903063549 76 252 0.0 1.0 0.00 0.00 0.00 74 1014.5
20260903063049 76 256 0.0 2.0 0.00 0.00 0.00 74 1014.7
20260903062820 77 257 0.0 2.0 0.00 0.00 0.00 74 1014.8
20260903062047 77 263 0.0 2.0 0.00 0.00 0.00 73 1014.8
20260903061544 77 193 0.0 2.0 0.00 0.00 0.00 73 1014.8
20260903061308 78 3 1.0 3.0 0.00 0.00 0.00 72 1015.1
20260903060544 78 107 1.0 3.0 0.00 0.00 0.00 72 1015.2
20260903060044 78 327 1.0 3.0 0.00 0.00 0.00 71 1015.3
20260903055545 79 52 1.0 4.0 0.00 0.00 0.00 70 1015.2
20260903055306 79 319 1.0 4.0 0.00 0.00 0.00 69 1015.1
20260903054545 80 40 2.0 4.0 0.00 0.00 0.00 69 1015.2
20260903054300 81 312 2.0 6.0 0.00 0.00 0.00 71 1015.3
20260903053805 81 334 1.0 6.0 0.00 0.00 0.00 75 1015.4
20260903053042 81 17 0.0 1.0 0.00 0.00 0.00 76 1014.6
20260903052542 81 164 0.0 4.0 0.00 0.00 0.00 76 1014.1
20260903052041 81 0 1.0 4.0 0.00 0.00 0.00 75 1014.0
20260903051805 81 50 0.0 3.0 0.00 0.00 0.00 75 1014.0
20260903051040 82 0 0.0 2.0 0.00 0.00 0.00 75 1014.0
20260903050538 82 0 0.0 2.0 0.00 0.00 0.00 74 1013.8
20260903050038 82 64 1.0 2.0 0.00 0.00 0.00 74 1013.8
20260903045540 82 222 1.0 4.0 0.00 0.00 0.00 73 1013.6
20260903045040 82 77 1.0 4.0 0.00 0.00 0.00 73 1013.5
20260903044536 82 35 1.0 4.0 0.00 0.00 0.00 72 1013.4
20260903044257 82 182 1.0 3.0 0.00 0.00 0.00 72 1013.4
20260903043537 83 43 1.0 3.0 0.00 0.00 0.00 72 1013.4
20260903043038 83 224 1.0 3.0 0.00 0.00 0.00 72 1013.3
20260903042536 83 229 1.0 3.0 0.00 0.00 0.00 71 1013.2
20260903042037 83 115 1.0 3.0 0.00 0.00 0.00 71 1013.2
20260903041802 83 224 1.0 4.0 0.00 0.00 0.00 71 1013.1
20260903041038 83 88 1.0 4.0 0.00 0.00 0.00 71 1013.0
20260903040536 83 87 1.0 6.0 0.00 0.00 0.00 70 1013.0
20260903040036 83 336 1.0 6.0 0.00 0.00 0.00 70 1012.9
20260903035536 83 88 1.0 5.0 0.00 0.00 0.00 70 1012.9
20260903035038 83 177 1.0 6.0 0.00 0.00 0.00 70 1012.8
20260903034537 83 63 1.0 6.0 0.00 0.00 0.00 70 1012.9
20260903034037 83 138 1.0 4.0 0.00 0.00 0.00 69 1012.7
20260903033537 84 358 1.0 4.0 0.00 0.00 0.00 69 1012.6
20260903033308 84 134 1.0 5.0 0.00 0.00 0.00 68 1012.5
20260903032759 84 189 1.0 5.0 0.00 0.00 0.00 68 1012.4
20260903032034 84 204 1.0 4.0 0.00 0.00 0.00 68 1012.4
20260903031754 84 241 1.0 5.0 0.00 0.00 0.00 68 1012.4
20260903031035 84 0 1.0 5.0 0.00 0.00 0.00 67 1012.6
20260903030535 84 182 1.0 4.0 0.00 0.00 0.00 68 1012.8
20260903030031 84 150 1.0 3.0 0.00 0.00 0.00 67 1012.9
20260903025532 84 203 1.0 4.0 0.00 0.00 0.00 68 1013.0
20260903025032 84 0 1.0 4.0 0.00 0.00 0.00 68 1013.1
20260903024533 84 83 1.0 4.0 0.00 0.00 0.00 68 1013.2
20260903024250 84 197 1.0 4.0 0.00 0.00 0.00 68 1013.3
20260903023527 84 0 1.0 4.0 0.00 0.00 0.00 68 1013.5
20260903023025 84 0 1.0 3.0 0.00 0.00 0.00 67 1013.5
20260903022525 84 232 1.0 3.0 0.00 0.00 0.00 67 1013.5
20260903022027 84 243 1.0 3.0 0.00 0.00 0.00 68 1013.5
20260903021528 84 122 1.0 3.0 0.00 0.00 0.00 68 1013.5
20260903021023 84 245 1.0 4.0 0.00 0.00 0.00 68 1013.6
20260903020527 84 102 1.0 4.0 0.00 0.00 0.00 69 1013.5
20260903020021 84 0 1.0 3.0 0.00 0.00 0.00 69 1013.5
20260903015521 84 204 1.0 3.0 0.00 0.00 0.00 69 1013.6
20260903015242 84 166 1.0 3.0 0.00 0.00 0.00 69 1013.6
20260903014522 84 167 1.0 2.0 0.00 0.00 0.00 69 1013.6
20260903014021 84 231 1.0 2.0 0.00 0.00 0.00 69 1013.6
20260903013522 85 236 1.0 2.0 0.00 0.00 0.00 68 1013.6
20260903013016 85 155 1.0 2.0 0.00 0.00 0.00 68 1013.6
20260903012519 85 210 1.0 3.0 0.00 0.00 0.00 68 1013.7
20260903012016 85 0 1.0 3.0 0.00 0.00 0.00 67 1013.7
20260903011517 85 0 1.0 3.0 0.00 0.00 0.00 67 1013.7
20260903011500 85 108 1.0 3.0 0.00 0.00 0.00 67 1013.7
20260903010519 85 194 1.0 2.0 0.00 0.00 0.00 67 1013.7
20260903010019 85 220 0.0 2.0 0.00 0.00 0.00 66 1013.6
20260903005518 85 209 0.0 2.0 0.00 0.00 0.00 66 1013.6
20260903005020 85 0 0.0 3.0 0.00 0.00 0.00 66 1013.5
20260903004517 85 0 0.0 3.0 0.00 0.00 0.00 66 1013.5
20260903004239 86 0 0.0 2.0 0.00 0.00 0.00 66 1013.5
20260903003517 86 0 0.0 2.0 0.00 0.00 0.00 65 1013.5
20260903003017 86 0 0.0 2.0 0.00 0.00 0.00 65 1013.4
20260903002517 86 131 0.0 2.0 0.00 0.00 0.00 65 1013.3
20260903002016 86 0 0.0 3.0 0.00 0.00 0.00 65 1013.3
20260903001514 86 0 1.0 3.0 0.00 0.00 0.00 64 1013.3
20260903001012 87 236 0.0 2.0 0.00 0.00 0.00 64 1013.4
20260903000512 87 0 0.0 2.0 0.00 0.00 0.00 64 1013.3
20260903000228 87 57 0.0 2.0 0.00 0.00 0.00 64 1013.3
20260902235512 87 0 0.0 2.0 0.00 0.00 0.00 63 1013.3
20260902235011 88 0 0.0 3.0 0.00 0.00 0.00 62 1013.3
20260902234512 88 72 1.0 3.0 0.00 0.00 0.00 62 1013.3
20260902234014 88 31 1.0 4.0 0.00 0.00 0.00 61 1013.3
20260902233513 89 99 1.0 4.0 0.00 0.00 0.00 61 1013.2
20260902233013 89 17 1.0 4.0 0.00 0.00 0.00 60 1013.2
20260902232512 89 160 1.0 3.0 0.00 0.00 0.00 60 1013.2
20260902232231 89 110 1.0 5.0 0.00 0.00 0.00 59 1013.3
20260902231512 89 179 1.0 5.0 0.00 0.00 0.00 59 1013.3
20260902231007 89 67 1.0 4.0 0.00 0.00 0.00 59 1013.3
20260902230508 89 332 1.0 3.0 0.00 0.00 0.00 58 1013.2
20260902230235 90 67 1.0 4.0 0.00 0.00 0.00 59 1013.3
20260902225508 90 0 1.0 4.0 0.00 0.00 0.00 58 1013.2
20260902225007 90 0 1.0 4.0 0.00 0.00 0.00 57 1013.2
20260902224506 90 167 1.0 4.0 0.00 0.00 0.00 56 1013.3
20260902224005 90 68 2.0 5.0 0.00 0.00 0.00 57 1013.2
20260902223505 90 71 1.0 5.0 0.00 0.00 0.00 56 1013.2
20260902223005 90 0 1.0 4.0 0.00 0.00 0.00 57 1013.2
20260902222503 90 59 1.0 4.0 0.00 0.00 0.00 57 1013.2
20260902222005 91 57 1.0 4.0 0.00 0.00 0.00 57 1013.2
20260902221504 91 183 1.0 6.0 0.00 0.00 0.00 57 1013.1
20260902221005 91 70 1.0 6.0 0.00 0.00 0.00 55 1013.0
20260902220725 91 327 1.0 9.0 0.00 0.00 0.00 56 1013.0
20260902220006 91 219 1.0 9.0 0.00 0.00 0.00 55 1013.0
20260902215501 92 45 1.0 9.0 0.00 0.00 0.00 55 1013.0
20260902215002 92 0 1.0 4.0 0.00 0.00 0.00 54 1013.1
20260902214459 92 97 1.0 4.0 0.00 0.00 0.00 53 1013.1
20260902213956 92 251 1.0 5.0 0.00 0.00 0.00 52 1013.1
20260902213456 92 356 1.0 5.0 0.00 0.00 0.00 52 1013.2
20260902212957 92 353 1.0 4.0 0.00 0.00 0.00 54 1013.2
20260902212454 92 347 2.0 5.0 0.00 0.00 0.00 52 1013.2
20260902211954 93 158 2.0 6.0 0.00 0.00 0.00 51 1013.3
20260902211713 93 124 2.0 6.0 0.00 0.00 0.00 52 1013.3
20260902211218 94 65 1.0 5.0 0.00 0.00 0.00 52 1013.3
20260902210454 94 55 2.0 7.0 0.00 0.00 0.00 52 1013.3
20260902205954 94 169 2.0 7.0 0.00 0.00 0.00 51 1013.4
20260902205454 93 312 1.0 5.0 0.00 0.00 0.00 52 1013.4
20260902204952 94 333 1.0 6.0 0.00 0.00 0.00 50 1013.5
20260902204454 94 20 1.0 6.0 0.00 0.00 0.00 49 1013.5
20260902203953 94 61 1.0 5.0 0.00 0.00 0.00 50 1013.7
20260902203451 95 64 1.0 4.0 0.00 0.00 0.00 48 1013.7
20260902202950 95 54 2.0 6.0 0.00 0.00 0.00 49 1013.8
20260902202715 95 333 2.0 6.0 0.00 0.00 0.00 49 1013.8
20260902201947 95 102 2.0 6.0 0.00 0.00 0.00 48 1013.8
20260902201448 95 189 2.0 6.0 0.00 0.00 0.00 51 1013.8
20260902200949 95 181 1.0 6.0 0.00 0.00 0.00 51 1013.8
20260902200448 95 243 2.0 6.0 0.00 0.00 0.00 50 1013.9
20260902200210 96 9 2.0 5.0 0.00 0.00 0.00 49 1013.9
20260902195449 95 172 2.0 6.0 0.00 0.00 0.00 49 1013.9
20260902194948 95 95 1.0 6.0 0.00 0.00 0.00 53 1014.0
20260902194449 95 79 2.0 7.0 0.00 0.00 0.00 52 1014.0
20260902193947 95 190 2.0 7.0 0.00 0.00 0.00 51 1014.1
20260902193449 96 204 2.0 7.0 0.00 0.00 0.00 50 1014.1
20260902192948 95 156 2.0 7.0 0.00 0.00 0.00 51 1014.2
20260902192447 95 242 2.0 7.0 0.00 0.00 0.00 51 1014.2
20260902191948 95 176 2.0 7.0 0.00 0.00 0.00 51 1014.3
20260902191709 95 297 2.0 6.0 0.00 0.00 0.00 50 1014.4
20260902190950 95 67 2.0 7.0 0.00 0.00 0.00 50 1014.4
20260902190450 95 104 2.0 7.0 0.00 0.00 0.00 50 1014.4
20260902185947 94 358 2.0 6.0 0.00 0.00 0.00 52 1014.4
20260902185446 94 45 2.0 6.0 0.00 0.00 0.00 54 1014.5
20260902184945 94 297 2.0 6.0 0.00 0.00 0.00 53 1014.6
20260902184443 94 133 2.0 4.0 0.00 0.00 0.00 53 1014.6
20260902183943 94 235 1.0 4.0 0.00 0.00 0.00 52 1014.7
20260902183444 95 66 2.0 4.0 0.00 0.00 0.00 52 1014.7
20260902182944 95 331 2.0 7.0 0.00 0.00 0.00 51 1014.7
20260902182444 96 162 2.0 7.0 0.00 0.00 0.00 51 1014.8
20260902181942 96 149 1.0 5.0 0.00 0.00 0.00 52 1014.8
20260902181710 96 92 1.0 4.0 0.00 0.00 0.00 51 1014.9
20260902181206 96 195 1.0 4.0 0.00 0.00 0.00 52 1014.9
20260902180444 96 71 1.0 4.0 0.00 0.00 0.00 52 1014.9
20260902175943 95 163 1.0 5.0 0.00 0.00 0.00 51 1014.9
20260902175445 96 0 1.0 6.0 0.00 0.00 0.00 51 1014.9
20260902174940 96 0 1.0 6.0 0.00 0.00 0.00 51 1015.0
20260902174440 96 316 1.0 3.0 0.00 0.00 0.00 48 1015.0
20260902173940 96 166 1.0 4.0 0.00 0.00 0.00 51 1015.1
20260902173439 96 349 2.0 4.0 0.00 0.00 0.00 49 1015.2
20260902172938 96 191 1.0 4.0 0.00 0.00 0.00 50 1015.3
20260902172440 96 249 1.0 5.0 0.00 0.00 0.00 46 1015.3
20260902171934 95 144 1.0 5.0 0.00 0.00 0.00 49 1015.4
20260902171433 95 224 1.0 4.0 0.00 0.00 0.00 53 1015.4
20260902170933 95 70 1.0 4.0 0.00 0.00 0.00 53 1015.5
20260902170433 95 175 1.0 4.0 0.00 0.00 0.00 53 1015.5
20260902165934 94 0 1.0 4.0 0.00 0.00 0.00 51 1015.5
20260902165651 94 303 1.0 4.0 0.00 0.00 0.00 53 1015.6
20260902164929 94 158 1.0 3.0 0.00 0.00 0.00 54 1015.6
20260902164430 93 56 1.0 4.0 0.00 0.00 0.00 54 1015.6
20260902163929 93 22 1.0 4.0 0.00 0.00 0.00 56 1015.6
20260902163429 92 141 1.0 4.0 0.00 0.00 0.00 59 1015.7
20260902162929 92 221 1.0 4.0 0.00 0.00 0.00 56 1015.8
20260902162429 92 161 1.0 4.0 0.00 0.00 0.00 58 1015.8
20260902161928 91 228 1.0 4.0 0.00 0.00 0.00 61 1015.8
20260902161427 91 0 1.0 4.0 0.00 0.00 0.00 59 1015.8
20260902160927 90 254 1.0 4.0 0.00 0.00 0.00 61 1015.9
20260902160655 90 297 1.0 4.0 0.00 0.00 0.00 63 1016.0
20260902155928 90 262 1.0 3.0 0.00 0.00 0.00 62 1016.1
20260902155428 89 225 1.0 5.0 0.00 0.00 0.00 63 1016.3
20260902154928 89 179 1.0 5.0 0.00 0.00 0.00 63 1016.3
20260902154425 89 240 1.0 5.0 0.00 0.00 0.00 63 1016.3
20260902153924 89 95 0.0 4.0 0.00 0.00 0.00 63 1016.4
20260902153423 89 233 0.0 2.0 0.00 0.00 0.00 63 1016.4
20260902152924 89 0 0.0 2.0 0.00 0.00 0.00 63 1016.4
20260902152643 90 67 1.0 2.0 0.00 0.00 0.00 62 1016.4
20260902151922 90 211 1.0 2.0 0.00 0.00 0.00 61 1016.4
20260902151423 90 0 0.0 2.0 0.00 0.00 0.00 61 1016.4
20260902151146 90 199 1.0 3.0 0.00 0.00 0.00 61 1016.3
20260902150420 90 310 1.0 3.0 0.00 0.00 0.00 62 1016.3
20260902150152 90 265 1.0 2.0 0.00 0.00 0.00 63 1016.1
20260902145416 90 29 0.0 2.0 0.00 0.00 0.00 62 1016.3
20260902144917 90 136 1.0 4.0 0.00 0.00 0.00 63 1016.1
20260902144417 89 207 1.0 4.0 0.00 0.00 0.00 64 1016.1
20260902143916 89 264 0.0 2.0 0.00 0.00 0.00 65 1016.1
20260902143410 88 251 1.0 4.0 0.00 0.00 0.00 67 1016.0
20260902143140 88 62 1.0 4.0 0.00 0.00 0.00 64 1015.9
20260902142411 88 215 1.0 2.0 0.00 0.00 0.00 66 1015.9
20260902141910 88 80 1.0 3.0 0.00 0.00 0.00 66 1015.9
20260902141411 87 220 1.0 3.0 0.00 0.00 0.00 68 1015.9
20260902140908 87 35 1.0 3.0 0.00 0.00 0.00 68 1015.9
20260902140407 87 0 1.0 4.0 0.00 0.00 0.00 69 1015.9
20260902135905 86 226 1.0 4.0 0.00 0.00 0.00 68 1015.9
20260902135406 86 144 1.0 4.0 0.00 0.00 0.00 69 1016.0
20260902134905 86 240 1.0 4.0 0.00 0.00 0.00 69 1015.9
20260902134406 85 90 1.0 6.0 0.00 0.00 0.00 70 1015.8
20260902133907 85 160 1.0 6.0 0.00 0.00 0.00 71 1015.8
20260902133406 85 241 1.0 4.0 0.00 0.00 0.00 71 1015.8
20260902132905 84 283 1.0 4.0 0.00 0.00 0.00 72 1015.8
20260902132406 84 6 1.0 4.0 0.00 0.00 0.00 73 1015.8
20260902132130 83 202 1.0 4.0 0.00 0.00 0.00 73 1015.7
20260902131405 83 240 1.0 4.0 0.00 0.00 0.00 73 1015.7
20260902131125 83 140 1.0 3.0 0.00 0.00 0.00 75 1015.8
20260902130406 82 223 1.0 4.0 0.00 0.00 0.00 76 1015.7
20260902130130 82 75 2.0 4.0 0.00 0.00 0.00 76 1015.8
20260902125405 82 257 1.0 4.0 0.00 0.00 0.00 76 1015.7
20260902124905 81 183 1.0 3.0 0.00 0.00 0.00 77 1015.7
20260902124405 81 216 1.0 3.0 0.00 0.00 0.00 77 1015.7
20260902123906 80 71 1.0 2.0 0.00 0.00 0.00 79 1015.7
20260902123403 80 290 1.0 3.0 0.00 0.00 0.00 80 1015.7
20260902122902 79 188 1.0 3.0 0.00 0.00 0.00 81 1015.8
20260902122403 78 228 1.0 5.0 0.00 0.00 0.00 82 1015.8
20260902122342 78 206 1.0 5.0 0.00 0.00 0.00 83 1015.8
20260902121621 78 211 1.0 4.0 0.00 0.00 0.00 83 1015.8
20260902120903 77 42 1.0 4.0 0.00 0.00 0.00 84 1015.9
20260902120401 77 201 1.0 3.0 0.00 0.00 0.00 85 1015.8
20260902115901 77 164 0.0 2.0 0.00 0.00 0.00 85 1015.7
20260902115359 77 231 1.0 3.0 0.00 0.00 0.00 85 1015.7
20260902114902 77 132 1.0 4.0 0.00 0.00 0.00 85 1015.6
20260902114400 77 161 1.0 4.0 0.00 0.00 0.00 85 1015.4
20260902113859 77 0 1.0 4.0 0.00 0.00 0.00 86 1015.4
20260902113623 77 200 1.0 4.0 0.00 0.00 0.00 86 1015.3
20260902112901 77 230 0.0 4.0 0.00 0.00 0.00 86 1015.3
20260902112400 77 43 1.0 3.0 0.00 0.00 0.00 86 1015.3
20260902111858 77 151 1.0 4.0 0.00 0.00 0.00 86 1015.2
20260902111615 77 188 1.0 4.0 0.00 0.00 0.00 86 1015.2
20260902110857 77 166 1.0 4.0 0.00 0.00 0.00 86 1015.1
20260902110357 77 0 1.0 4.0 0.00 0.00 0.00 86 1015.1
20260902105857 77 129 1.0 4.0 0.00 0.00 0.00 86 1015.1
20260902105358 77 140 1.0 4.0 0.00 0.00 0.00 86 1015.1
20260902104854 77 157 1.0 4.0 0.00 0.00 0.00 85 1015.1
20260902104620 77 221 1.0 4.0 0.00 0.00 0.00 85 1015.1
20260902103855 77 211 1.0 4.0 0.00 0.00 0.00 85 1015.1
20260902103356 77 176 1.0 3.0 0.00 0.00 0.00 85 1015.1
20260902102855 77 194 1.0 3.0 0.00 0.00 0.00 86 1015.0
20260902102355 77 123 1.0 3.0 0.00 0.00 0.00 86 1015.1
20260902102120 77 222 1.0 3.0 0.00 0.00 0.00 86 1015.1
20260902101355 77 0 1.0 3.0 0.00 0.00 0.00 86 1015.1
20260902100856 77 280 1.0 5.0 0.00 0.00 0.00 86 1015.1
20260902100355 76 212 1.0 5.0 0.00 0.00 0.00 86 1015.0
20260902095856 76 140 1.0 4.0 0.00 0.00 0.00 86 1015.0
20260902095356 76 163 1.0 4.0 0.00 0.00 0.00 86 1015.0
20260902094855 76 236 1.0 4.0 0.00 0.00 0.00 86 1015.1
20260902094615 76 174 1.0 6.0 0.00 0.00 0.00 86 1015.0
20260902093852 76 226 1.0 6.0 0.00 0.00 0.00 87 1015.0
20260902093352 76 154 1.0 4.0 0.00 0.00 0.00 87 1014.9
20260902092853 76 230 1.0 4.0 0.00 0.00 0.00 87 1015.1
20260902092353 77 233 1.0 3.0 0.00 0.00 0.00 86 1015.2
20260902092118 77 167 1.0 4.0 0.00 0.00 0.00 86 1015.2
20260902091608 77 124 1.0 4.0 0.00 0.00 0.00 86 1015.2
20260902090850 76 176 1.0 4.0 0.00 0.00 0.00 87 1015.2
20260902090610 76 185 1.0 4.0 0.00 0.00 0.00 87 1015.2
20260902085851 76 215 1.0 3.0 0.00 0.00 0.00 87 1015.2
20260902085352 77 206 1.0 3.0 0.00 0.00 0.00 86 1015.4
20260902085113 77 220 1.0 2.0 0.00 0.00 0.00 86 1015.4
20260902084351 77 132 1.0 3.0 0.00 0.00 0.00 86 1015.4
20260902083852 77 170 1.0 3.0 0.00 0.00 0.00 85 1015.4
20260902083352 77 146 1.0 4.0 0.00 0.00 0.00 85 1015.3
20260902082851 77 168 1.0 4.0 0.00 0.00 0.00 85 1015.3
20260902082612 77 156 1.0 4.0 0.00 0.00 0.00 85 1015.2
20260902081848 77 202 1.0 4.0 0.00 0.00 0.00 85 1015.3